Regional Weather Roundup
Issued by NWS

Home | Current Version | Previous Version | Graphics & Text | Print | Product List | Glossary On
Versions: 1 2 3 4 5 6 7 8 9 10 11 12 13 14 15 16 17 18 19 20 21 22 23 24 25 26 27 28 29 30 31 32 33 34 35 36 37 38 39 40 41 42 43 44 45 46 47 48 49 50
000
ASUS45 KBOU 250110
RWRCO

WEATHER ROUNDUP FOR COLORADO
NATIONAL WEATHER SERVICE PUEBLO CO
700 PM MDT TUE APR 24 2018

NOTE: "FAIR" INDICATES FEW OR NO CLOUDS BELOW 12000 FEET WITH NO
SIGNIFICANT WEATHER AND/OR OBSTRUCTIONS TO VISIBILITY.

COZ001>005-013-030-031-250200-
...NORTHWEST COLORADO...

CITY           SKY/WX    TMP DP  RH WIND       PRES   REMARKS
CRAIG          SUNNY     47  22  37 N18G26    30.31R
HAYDEN         PTCLDY    46  22  38 W17       30.28R
MEEKER         SUNNY     50  20  30 N16       30.31R
RABBIT EARS PA NOT AVBL
STEAMBOAT SPGS MOCLDY    46  24  42 E15       30.27R
WALDEN         CLOUDY    34  16  47 NE15      30.36R WCI  24
$$

COZ006>008-011-250200-
...WEST CENTRAL VALLEYS...

CITY           SKY/WX    TMP DP  RH WIND       PRES   REMARKS
GRAND JUNCTION SUNNY     62  16  16 N17       30.19R
MONTROSE       PTCLDY    60  16  18 NW24G31   30.20R
EAGLE          PTCLDY    54  12  18 NW16G23   30.24R
RIFLE          MOSUNNY   57  20  23 N12G22    30.25R
DELTA          NOT AVBL
NUCLA          FAIR      64  16  15 NW21G28   30.19R
$$

COZ017>023-064>068-250200-
...SOUTHWEST COLORADO...

CITY           SKY/WX    TMP DP  RH WIND       PRES   REMARKS
DURANGO        PTCLDY    62  29  28 N18G29    30.10F
CORTEZ         PTSUNNY   68  21  16 NW14      30.10R
PAGOSA SPRINGS FAIR      62  22  21 W8G20     30.17R
TELLURIDE      CLOUDY    51  24  36 NW5       30.30R
WOLF CREEK PAS MOCLDY    37  23  56 W12G23    30.41R
$$

COZ009-010-012-014-032>034-037-058>063-250200-
...CENTRAL COLORADO...

CITY           SKY/WX    TMP DP  RH WIND       PRES   REMARKS
ASPEN          MOCLDY    47  17  30 NW14G24   30.25R
BUENA VISTA    LGT SNOW  33  30  88 NE13      30.32R WCI  24
COPPER MTN     NOT AVBL
BERTHOUD PASS  CLOUDY    19   9  63 MISG      30.33S
COTTONWOOD PAS SNOW      36  34  93 E3        30.33R VSB<1/4
GUNNISON       CLOUDY    54  24  31 NW18G28   30.18R
KREMMLING      PTCLDY    46  25  42 NW16G26   30.29R
LEADVILLE      CLOUDY    36  25  64 NE12      30.28S
MONARCH PASS   FOG       25  21  86 NE5G17    30.42S VSB<1/4 WCI  19
SALIDA         CLOUDY    35  30  80 SE15G26   30.37R WCI  26
SUNLIGHT       PTCLDY    32  12  43 W6G18     30.39R WCI  26
WILKERSON PASS HVY SNOW N/A N/A N/A SE6       30.37R VSB 1/4
$$

COZ069>075-250200-
...SAN LUIS VALLEY/SANGRE DE CRISTO MOUNTAINS...

CITY           SKY/WX    TMP DP  RH WIND       PRES   REMARKS
ALAMOSA        CLOUDY    45  28  51 SE10      30.15R
DEL NORTE      CLOUDY    52  32  46 NE8       30.17R
LA VETA PASS   SNOW      25  23  93 MISG      30.42S VSB 1/2
SAGUACHE       NOT AVBL
$$

COZ035-036-038>040-250200-
...NORTHERN COLORADO FRONT RANGE...

CITY           SKY/WX    TMP DP  RH WIND       PRES   REMARKS
DENVER INTL AP CLOUDY    38  32  79 NW12      30.39R
DMNS CITY PARK NOT AVBL
AURORA         MOCLDY    36  35  99 W6        30.39F
FRONT RANGE AP CLOUDY    39  36  87 NW12      30.39S
ERIE MUNI ARPT CLOUDY    38  34  85 W6        30.46S
BOULDER MUN AP CLOUDY    37  34  87 SW7       30.40S
CENTENNIAL     DRIZZLE   34  33  96 NW7       30.39S FOG     WCI  28
BROOMFIELD     CLOUDY    36  34  93 W12       30.41S
LOVELAND       CLOUDY    42  26  53 NE7       30.40S
LONGMONT       LGT RAIN  42  35  78 CALM      30.42R
$$

COZ041-046-047-076>085-087-088-250200-
...PIKES PEAK/PALMER DIVIDE AND SOUTHERN FOOTHILLS...

CITY           SKY/WX    TMP DP  RH WIND       PRES   REMARKS
COLO. SPRINGS  LGT SNOW  34  31  88 N13       30.37R VSB 1   WCI  25
A. F. ACADEMY  LGT SNOW  33  29  83 N12       30.37R WCI  25
SCHRIEVER AFB  NOT AVBL
CHEYENNE MTN   NOT AVBL
ELLICOTT       SNOW     N/A N/A N/A N10       30.36S
FALCON         LGT SNOW  32  27  83 N9        30.37F WCI  24
FORT CARSON    LGT SNOW  34  32  92 N10       30.37R FOG     WCI  26
LIMON          CLOUDY    36  30  79 N9        30.37S
MONUMENT HILL  SNOW      30  28  93 NW8       30.39R VSB 1/2 WCI  23
CANON CITY     LGT RAIN  36  36 100 SE9G16    30.38S
WALSENBURG     CLOUDY    34  34 100 MISG      30.39R VSB 1/2
TRINIDAD       CLOUDY    37  32  82 N9        30.37R
$$

COZ042>045-048>051-090-091-250200-
...NORTHEAST COLORADO...

CITY           SKY/WX    TMP DP  RH WIND       PRES   REMARKS
GREELEY ARPT   MOCLDY    42  26  53 NE13      30.40F
AKRON          CLOUDY    38  30  73 N16       30.37F
BURLINGTON     CLOUDY    38  33  82 N18G26    30.36R
WRAY           CLOUDY    41  32  70 N15G21    30.38R
YUMA           NOT AVBL
STERLING       NOT AVBL
HOLYOKE        MOCLDY    41  32  70 N18G24    30.38S
FORT MORGAN    MOCLDY    43  25  49 N20       30.39S
$$

COZ086-089-092>099-250200-
...SOUTHEAST COLORADO...

CITY           SKY/WX    TMP DP  RH WIND       PRES   REMARKS
PUEBLO         CLOUDY    37  35  92 S7        30.41R
LA JUNTA       RAIN      38  34  85 N15G23    30.39R
LAMAR          LGT RAIN  41  36  82 N13G22    30.35R
SPRINGFIELD      N/A     42  33  70 N20G29    30.31R
$$




USA.gov is the U.S. government's official web portal to all federal, state and local government web resources and services.